Theta_e
323 323 323 321 320 321 321 320 321 322 324 326 324 323 320 319 321 330 337 339 343 342 343 347 346 348 349 346 347 349 351 351 352 355 356 357 357 357 356 355 354 354 353 353 354 352 352 351 351 351 352 353 352 352 354 355 355 355 355 354 355 355 355 355 356 355 350 349 349 347 346 345 346 346 347 348 348 347 348 351 354 356 357 356 357 357
322 321 322 322 322 322 322 321 321 320 322 325 324 323 321 320 323 329 334 336 339 338 338 345 345 346 347 345 345 348 351 352 350 354 356 357 358 357 357 356 355 355 354 354 354 354 354 352 352 353 353 353 353 353 354 355 356 356 356 355 355 356 356 356 356 354 350 348 347 345 344 343 342 345 347 347 346 345 347 352 355 356 356 356 357 357
319 319 321 323 321 322 322 321 320 319 321 322 322 320 318 321 324 327 332 336 337 336 338 344 341 341 346 345 344 347 349 350 350 351 355 357 358 358 357 356 357 355 355 354 352 354 354 353 354 354 353 354 354 354 354 356 356 356 355 355 356 356 355 356 356 354 351 349 348 345 343 342 341 343 345 344 345 345 347 351 354 356 356 356 356 356
316 318 320 322 320 321 322 322 322 321 320 320 318 314 314 321 322 320 326 335 335 335 337 342 340 340 344 344 344 345 347 351 350 350 353 356 357 358 357 357 356 357 357 355 353 353 355 355 354 354 355 355 354 354 355 356 356 356 355 355 356 356 356 356 356 355 352 351 351 347 345 344 343 345 346 344 346 348 347 350 353 355 356 356 356 356
317 319 320 320 320 321 321 321 322 319 317 317 316 314 315 323 324 322 328 333 332 332 337 339 331 332 340 343 343 343 346 348 348 349 352 354 356 357 355 357 357 356 357 356 354 353 355 356 355 355 356 355 355 355 356 355 356 356 356 356 356 357 356 356 357 355 354 354 353 351 350 348 347 347 348 346 346 346 346 347 352 355 356 357 356 356
318 320 320 319 319 320 320 319 320 318 315 315 316 317 318 323 327 328 330 329 324 323 331 333 323 324 335 340 343 342 344 347 347 350 353 354 356 356 356 357 356 356 356 356 355 354 355 357 357 356 356 356 355 355 356 355 355 355 356 357 357 357 356 357 357 356 355 356 355 353 350 349 347 347 346 344 342 341 342 343 348 354 356 357 356 356
318 319 320 319 319 319 318 318 318 320 314 312 317 318 319 323 326 328 328 324 318 319 330 333 324 321 328 334 342 343 346 348 347 350 353 355 357 356 357 357 355 356 356 356 355 354 355 356 357 356 356 356 355 355 356 355 355 355 356 358 358 358 358 357 358 356 355 355 355 353 350 347 346 345 343 343 340 338 341 342 346 352 355 358 356 355
319 319 319 319 319 318 318 317 318 320 314 312 319 320 319 319 322 326 326 322 320 322 329 331 327 321 321 330 343 344 342 347 349 351 353 354 356 356 356 356 357 356 356 356 356 354 355 356 357 356 355 354 354 356 356 355 355 356 357 359 359 359 358 357 357 357 356 355 355 354 350 347 345 343 342 345 343 341 343 345 347 351 354 357 357 356
321 320 320 320 319 318 318 318 319 319 317 317 320 321 321 320 320 322 322 321 323 323 320 323 325 322 318 327 341 344 339 344 348 350 352 354 356 356 356 354 355 356 355 356 355 354 356 357 357 356 355 355 355 356 355 356 357 357 358 359 360 359 358 358 357 357 356 356 355 354 351 350 347 344 343 347 347 346 348 350 351 353 354 356 358 357
323 322 321 320 319 318 319 320 320 318 319 319 321 323 323 322 319 320 320 318 320 321 317 319 322 321 318 322 332 336 335 340 346 346 350 354 354 356 356 354 355 355 356 355 355 355 356 358 357 356 356 355 355 356 356 357 357 357 358 359 360 360 359 358 357 358 357 356 355 355 353 351 350 348 346 348 351 351 352 353 353 354 355 355 356 356
322 323 323 322 321 320 319 321 320 319 320 320 320 322 321 321 321 319 317 316 316 318 318 318 320 321 319 320 326 333 334 340 344 344 349 351 352 355 356 354 354 355 356 355 355 355 357 358 357 357 357 356 356 356 357 357 357 357 359 359 360 360 359 358 358 358 358 356 356 355 354 353 352 351 350 350 353 355 354 354 352 353 354 353 355 355
322 322 323 323 322 321 321 321 322 320 320 320 319 319 316 316 319 316 314 314 315 315 316 318 321 320 318 321 328 335 338 339 340 341 346 349 350 354 355 354 353 354 355 355 355 355 357 357 357 357 357 357 357 357 358 358 358 358 359 360 361 360 360 359 358 358 358 357 356 355 355 354 354 353 353 352 354 355 355 353 352 352 354 354 355 355
320 321 322 323 323 323 322 321 321 321 320 321 319 316 312 313 317 317 314 313 313 313 315 318 319 318 318 324 333 337 338 339 339 340 342 345 349 353 354 355 354 352 354 355 355 355 355 356 358 359 358 358 358 357 358 358 358 358 359 360 361 361 360 359 359 358 358 357 357 356 356 355 355 355 355 354 353 354 354 354 353 354 356 357 356 356
315 319 321 321 322 323 323 320 318 318 320 320 316 314 312 312 318 320 316 315 314 313 314 317 318 315 316 324 334 336 335 338 338 339 339 341 344 350 353 354 353 353 353 354 355 355 355 356 358 359 358 359 359 358 358 357 358 358 359 360 361 362 361 360 360 359 357 357 357 357 357 355 356 356 356 355 352 352 353 353 353 353 354 356 356 356
313 316 319 320 320 322 323 322 321 320 320 320 320 318 313 312 318 319 316 315 315 313 314 316 316 313 313 322 331 333 332 335 336 337 339 340 342 346 349 351 352 352 352 353 354 355 355 356 358 360 358 359 359 358 358 357 358 359 359 360 361 362 361 360 359 359 357 357 357 357 357 356 356 356 355 356 353 352 354 353 353 353 353 353 355 355
312 314 320 321 321 323 324 323 324 323 320 321 322 318 314 315 317 316 315 314 314 313 314 314 315 317 320 327 331 331 331 332 334 336 337 338 339 342 345 348 350 351 352 353 353 354 355 358 359 359 358 358 359 358 358 357 358 359 359 360 361 361 361 361 360 359 358 357 357 358 357 356 356 356 356 356 355 354 354 354 353 354 354 352 353 356
313 314 320 321 321 322 324 324 324 323 320 321 319 316 318 321 318 314 313 314 314 315 316 314 315 319 320 325 329 331 331 331 333 334 334 335 337 340 342 345 347 350 352 352 353 354 355 357 359 358 358 358 358 358 358 357 358 359 359 360 362 361 362 361 361 360 359 359 358 358 358 357 357 357 356 356 356 355 354 356 354 354 354 354 353 355
315 315 319 320 321 322 322 323 324 324 324 321 317 318 321 322 321 316 314 314 315 315 316 313 313 315 314 318 326 328 328 329 331 333 334 334 336 337 340 343 344 348 351 352 354 354 354 355 358 358 357 357 358 358 358 359 359 359 359 360 360 361 362 361 361 360 360 359 360 360 359 358 358 358 357 356 356 355 354 356 356 353 354 354 354 354
315 315 317 319 321 321 322 323 322 323 325 323 321 324 322 317 317 317 316 317 316 316 315 313 312 312 311 315 323 326 326 327 329 330 332 333 335 336 338 341 343 346 349 353 354 353 353 354 358 358 358 357 358 358 359 359 359 358 359 360 360 361 361 361 360 360 360 360 360 360 360 359 358 358 358 356 356 357 356 356 356 354 353 354 355 355
315 316 317 317 320 322 321 321 318 319 323 324 324 327 324 320 317 317 318 318 316 316 316 314 312 312 315 320 324 327 328 326 327 329 330 332 334 337 338 340 344 346 348 352 353 353 353 353 356 357 357 357 357 358 359 359 359 359 359 360 360 360 360 360 360 359 359 360 360 360 360 359 359 359 359 358 357 358 357 356 356 355 354 354 355 356
314 316 316 318 320 319 319 320 320 319 320 322 320 321 322 322 321 319 319 318 316 316 317 317 314 313 320 327 327 327 330 329 329 330 330 332 332 334 337 339 342 347 349 351 352 353 353 353 355 357 356 356 357 357 358 358 358 358 358 359 359 360 360 359 360 359 360 360 359 360 360 361 360 360 359 359 358 358 358 357 357 357 356 356 356 356
315 317 318 317 316 316 317 320 321 321 322 322 320 320 320 320 319 318 318 317 316 316 316 317 315 315 323 330 328 327 329 329 330 332 330 333 333 334 337 338 342 346 351 351 352 352 353 353 354 356 356 356 355 357 358 356 358 358 358 359 358 358 360 359 359 359 360 360 360 360 360 360 361 360 360 359 358 358 359 359 358 358 357 356 357 357
314 316 318 318 317 316 319 321 322 321 321 322 322 323 324 322 319 316 316 317 317 316 316 316 315 318 327 330 328 327 328 328 328 329 331 332 334 334 337 337 341 346 351 352 350 351 352 353 356 357 356 356 355 357 357 357 357 358 357 358 358 358 358 358 358 358 360 360 360 360 360 360 360 360 359 359 358 358 359 359 358 357 357 357 357 358
315 316 318 319 318 318 319 319 320 320 320 321 322 324 325 324 321 321 320 320 319 316 316 317 315 319 328 332 330 329 329 328 329 329 329 330 332 333 336 336 340 346 352 353 351 351 352 353 356 357 356 357 356 356 356 356 357 357 358 357 357 357 357 358 358 359 360 361 360 360 360 360 360 360 360 359 358 358 358 358 358 358 358 357 357 358
315 317 318 319 319 318 317 317 319 320 320 319 322 324 325 325 325 325 323 323 322 318 317 318 315 318 328 334 332 330 329 328 329 330 329 331 330 332 334 338 339 348 354 354 352 353 353 354 357 358 358 359 355 355 356 356 357 358 357 357 357 357 357 358 357 358 360 361 361 360 360 360 360 359 360 359 358 358 357 357 357 358 359 358 357 357
314 317 318 320 321 318 318 318 318 319 321 320 322 324 323 324 325 324 321 321 322 321 320 319 316 320 330 336 332 333 331 329 330 331 330 329 330 330 334 338 341 350 356 356 355 353 354 357 359 360 360 359 355 356 356 356 357 356 356 356 356 356 357 357 358 358 359 361 360 360 360 360 360 360 360 359 358 357 357 357 356 357 358 358 358 357
313 315 316 319 321 319 320 322 321 319 319 320 320 322 322 323 324 324 321 319 321 322 320 321 321 321 327 334 335 333 331 330 330 329 330 331 332 332 335 339 342 346 351 355 355 354 357 359 360 360 361 359 356 355 355 356 357 356 356 357 356 357 357 357 358 359 359 361 361 360 361 360 360 359 359 359 358 357 357 357 356 356 358 359 358 357
311 313 314 316 318 318 319 320 318 317 318 318 318 320 320 322 323 322 320 321 325 323 319 324 328 323 325 333 335 333 333 334 331 333 333 333 333 333 335 339 339 339 343 350 354 356 357 358 361 361 360 359 357 355 355 356 356 355 356 356 356 356 357 357 359 359 359 360 361 360 361 360 360 360 360 360 360 358 357 358 356 357 358 359 358 358
310 311 312 312 313 314 314 315 315 316 317 317 317 318 319 321 322 321 321 323 327 325 322 327 332 328 329 333 332 332 337 338 337 339 336 334 336 339 339 340 336 333 336 343 351 356 356 358 362 362 360 360 358 356 355 356 355 355 356 356 356 356 357 357 358 358 359 361 361 361 361 360 360 361 360 361 361 360 360 359 358 357 358 360 359 358
309 310 310 310 312 312 312 313 314 314 315 316 316 317 318 320 320 320 322 324 325 326 326 329 332 331 331 334 335 337 339 338 336 338 337 337 343 346 345 343 339 336 334 336 345 354 356 358 360 364 364 361 358 356 356 355 355 355 355 356 357 356 356 357 358 359 359 360 361 361 362 361 361 362 361 361 361 361 361 359 360 359 359 360 360 359
309 310 311 310 312 312 312 313 314 314 315 316 316 317 317 318 320 320 321 323 323 324 327 329 329 329 330 337 343 344 341 339 337 337 341 345 348 350 349 346 344 345 345 341 341 347 353 356 359 363 364 363 360 358 356 355 355 355 355 355 356 356 356 357 358 359 360 360 361 362 361 362 362 362 363 362 363 362 361 360 360 360 360 360 360 360
309 309 310 310 311 312 312 313 314 314 315 315 315 317 317 317 320 320 321 323 323 325 328 327 325 328 335 342 344 345 342 342 340 339 346 352 353 354 354 352 351 354 355 353 352 348 348 351 355 360 361 360 359 357 356 356 356 355 355 356 355 356 356 356 358 359 360 360 361 362 363 362 363 363 363 363 363 364 363 361 361 361 361 361 361 361
309 309 309 310 310 311 312 313 314 316 317 317 317 317 318 318 320 320 322 330 334 333 330 327 328 335 342 341 342 344 345 346 347 347 353 356 356 356 355 354 355 355 356 358 359 356 351 347 349 355 357 359 358 356 355 356 357 355 356 356 356 355 355 357 358 359 361 360 361 363 364 363 364 364 364 365 364 365 364 363 362 361 361 361 361 362
310 309 309 309 310 311 312 314 316 318 317 319 320 319 320 320 320 320 324 335 341 337 333 334 337 340 339 338 340 342 343 346 348 349 353 355 356 356 356 355 356 356 358 357 358 359 358 353 348 350 356 357 356 355 356 355 357 357 356 355 356 356 356 357 358 360 361 360 362 365 365 364 365 365 365 365 365 365 365 363 362 362 362 362 362 362
310 310 310 309 309 310 311 314 318 319 319 321 325 325 323 321 319 323 331 337 337 336 336 338 339 337 335 335 336 338 340 342 343 346 349 351 353 354 354 355 355 356 357 358 359 361 362 359 351 347 352 356 354 354 355 356 356 356 355 356 356 356 356 357 358 360 361 361 363 365 365 365 365 365 365 366 365 364 365 364 364 363 361 361 362 363
310 310 310 310 310 310 311 313 318 320 320 323 329 328 327 327 326 331 336 335 333 333 335 336 336 334 332 332 333 334 338 340 341 345 348 349 351 352 351 352 354 355 355 357 358 359 362 361 353 345 348 354 353 353 355 355 355 355 356 356 355 355 357 357 358 360 361 362 363 365 365 364 365 366 365 365 365 364 365 364 364 364 362 362 362 362
310 310 310 310 310 311 311 313 316 318 318 323 329 330 329 331 332 334 337 335 331 329 331 332 333 331 329 331 332 333 336 340 344 347 347 346 348 349 349 350 351 353 355 356 358 360 360 360 352 344 347 353 352 351 354 354 355 355 355 354 356 357 357 357 359 361 361 362 362 364 365 364 364 365 365 365 365 364 364 364 364 364 363 362 362 362
310 310 310 310 310 311 312 313 316 319 320 324 330 329 326 327 328 330 336 335 330 326 327 328 328 328 327 329 329 331 338 345 349 349 344 339 338 340 345 348 350 352 354 355 358 361 357 353 349 344 347 352 352 351 353 353 354 356 355 355 356 356 357 358 360 361 361 362 363 364 365 364 364 364 364 364 364 364 364 364 364 365 364 362 362 362
309 309 310 310 310 311 312 314 316 319 322 327 328 325 323 325 326 328 336 337 329 324 324 324 324 324 324 324 326 331 341 349 351 346 336 330 330 332 338 346 350 351 354 357 359 359 353 349 349 346 348 352 353 351 352 353 355 355 355 356 356 357 357 358 360 361 362 362 362 364 364 364 364 364 364 364 364 364 364 365 364 364 364 363 362 362
309 310 310 310 311 312 312 314 315 317 322 325 324 322 322 323 324 331 340 337 326 322 322 322 322 321 320 321 325 329 336 341 340 334 326 325 328 330 336 347 352 352 354 358 360 360 353 350 351 349 350 353 353 351 352 355 354 355 356 357 357 356 358 359 360 361 363 363 362 364 364 364 364 364 363 365 365 364 364 365 365 365 364 363 363 362
310 310 310 310 311 311 312 314 315 316 320 323 322 321 321 323 329 336 337 329 323 321 320 319 319 318 318 319 323 325 327 326 325 324 322 323 326 329 336 349 354 354 356 358 359 360 355 352 353 352 351 352 352 352 354 355 355 356 358 358 358 357 358 359 361 363 363 362 363 364 364 364 364 364 364 364 365 365 365 365 364 364 364 364 362 362
311 311 311 311 311 311 311 313 315 317 319 320 320 321 321 326 334 332 324 320 320 320 319 318 317 317 317 318 320 321 322 321 321 322 321 322 325 328 338 350 354 354 356 357 359 359 357 354 355 353 350 353 354 354 354 354 355 358 359 358 359 358 358 360 362 364 364 364 363 365 365 364 364 364 363 363 365 365 364 365 364 364 364 364 362 363
312 311 311 311 311 311 312 313 315 318 318 318 320 321 321 324 326 321 317 319 320 318 318 317 316 315 316 317 317 319 320 321 321 321 321 321 323 327 338 352 354 352 354 356 356 359 359 355 354 352 353 355 354 354 355 355 357 360 360 359 360 358 358 361 363 365 366 365 364 365 366 366 365 364 363 363 364 365 365 365 365 364 364 364 363 364
314 313 313 312 312 313 314 315 317 318 317 316 318 320 319 318 317 316 317 319 318 317 317 317 317 316 315 316 316 317 320 321 321 321 321 321 321 325 336 350 354 352 354 355 356 358 360 360 355 351 354 356 355 356 356 357 361 363 361 361 360 359 359 363 365 367 367 365 366 367 367 367 365 364 363 364 365 365 365 366 365 365 365 366 365 365
314 314 314 315 316 315 315 316 317 316 315 315 317 318 316 315 314 315 316 317 317 317 316 316 317 316 315 316 316 317 319 320 320 321 321 321 322 324 333 347 353 352 354 355 356 357 359 362 360 356 356 356 355 356 357 359 364 365 364 363 362 360 362 366 368 369 367 366 366 368 368 367 366 364 363 363 364 366 367 367 366 366 366 366 366 366
311 312 313 314 315 315 315 315 315 315 314 315 316 316 316 315 315 315 316 317 316 315 315 315 316 316 316 317 316 317 318 320 321 322 321 321 323 323 329 344 352 351 352 354 355 356 357 358 362 364 364 362 359 358 359 363 366 366 365 364 364 363 366 370 369 369 367 368 367 368 368 367 366 365 365 364 364 366 367 367 367 367 367 367 367 367
311 312 313 314 313 314 315 316 315 314 313 314 316 316 316 316 315 315 316 316 315 315 315 315 316 316 316 317 317 316 317 319 321 322 321 321 323 323 327 341 351 350 350 352 352 355 357 357 359 363 365 366 365 363 363 364 366 366 368 368 366 365 368 371 370 368 368 368 367 367 367 367 366 364 365 365 365 366 367 367 367 368 368 368 368 368
311 312 313 313 313 314 315 315 313 312 313 315 317 317 316 315 314 314 315 316 315 315 315 315 316 317 317 318 317 317 317 318 320 321 320 320 323 322 324 337 349 350 349 350 350 351 354 355 358 360 361 362 363 365 366 368 366 368 369 367 364 365 369 369 368 368 368 367 366 367 367 367 366 365 365 366 366 366 368 368 368 368 369 369 369 368
311 313 313 313 314 314 315 314 313 313 315 317 317 315 314 313 313 314 314 315 315 316 315 315 316 317 317 317 317 317 318 319 320 320 320 321 323 322 323 334 348 349 347 348 349 348 350 352 354 356 357 357 359 361 363 365 366 367 369 368 367 369 370 369 368 368 368 367 367 367 368 367 367 365 365 367 368 368 368 368 368 368 368 369 369 368
311 311 311 312 314 314 314 313 313 313 315 315 314 313 313 314 314 314 314 315 316 316 315 315 316 317 317 318 317 317 318 319 319 319 320 321 322 321 324 335 345 346 344 346 346 347 348 350 351 352 354 355 356 358 359 361 362 365 367 368 369 370 370 370 369 369 369 369 368 367 367 368 367 366 366 367 368 369 366 363 365 366 367 367 368 368
311 310 310 311 311 312 312 311 312 313 313 313 312 313 313 313 314 315 315 316 316 315 315 316 316 316 318 318 318 318 317 318 318 318 319 321 322 322 326 336 341 341 341 343 343 345 347 347 347 350 351 353 354 355 356 358 359 361 363 365 367 368 369 370 369 368 369 370 369 368 368 367 366 367 367 366 368 370 365 360 360 362 363 364 366 366
Wind_Speed
10 9 11 12 13 14 15 15 15 9 4 7 10 10 12 11 10 13 12 9 9 12 13 15 14 14 14 13 13 13 15 15 14 14 14 15 15 16 16 16 17 17 16 19 25 27 28 28 27 26 26 26 27 26 25 25 25 24 22 21 20 20 19 19 19 19 18 16 15 14 14 13 12 12 11 10 10 9 9 8 8 9 9 8 7 7
10 11 13 15 14 13 14 15 15 13 9 7 8 8 10 11 9 12 13 9 8 9 11 14 15 15 16 16 16 16 16 15 14 15 15 17 17 16 17 18 17 15 14 18 22 25 28 28 28 27 26 27 28 27 27 27 27 25 24 22 21 20 20 20 19 19 18 17 16 15 15 14 13 12 12 11 11 10 9 9 10 10 9 8 8 8
10 12 15 16 13 11 11 13 15 15 13 9 8 8 8 9 9 11 11 8 7 8 10 13 13 14 15 16 16 16 15 13 14 16 16 18 18 16 17 17 17 16 16 18 20 24 28 29 29 28 26 27 28 28 28 29 28 26 25 23 21 21 21 20 19 19 19 18 16 15 14 14 12 11 12 11 10 10 10 10 11 11 10 9 8 8
9 11 15 15 12 13 11 11 14 13 11 10 9 9 8 9 9 10 10 10 10 8 10 13 11 11 12 13 15 13 13 13 14 16 16 17 17 17 17 16 17 18 18 18 20 22 26 28 29 28 27 27 28 28 28 28 28 26 26 25 23 22 21 20 20 19 19 17 16 15 13 13 11 9 10 11 10 10 10 10 11 12 12 10 9 9
11 7 10 14 13 14 14 12 14 11 9 12 13 12 10 10 11 10 5 6 10 11 12 13 10 10 11 13 15 13 13 14 13 15 16 16 16 16 16 17 18 19 18 19 20 21 23 26 28 29 27 27 28 28 28 28 28 26 26 27 25 23 22 21 21 21 19 17 17 15 12 12 11 9 9 11 12 12 12 12 12 12 12 12 10 10
13 7 5 12 14 14 15 13 14 12 9 11 15 16 14 11 11 11 7 4 7 10 12 13 11 9 12 15 15 12 12 14 13 15 17 16 15 15 15 16 18 18 18 19 20 21 22 25 28 29 28 27 27 28 27 28 27 26 26 27 26 24 23 22 22 23 21 19 18 18 16 15 14 13 13 15 15 14 14 13 13 12 12 12 12 11
11 11 7 11 14 15 16 14 14 14 10 8 11 16 19 15 11 10 10 8 7 8 11 15 13 10 10 15 17 15 14 16 14 15 16 15 15 15 15 16 16 17 18 18 19 20 22 25 27 29 30 29 28 27 27 27 27 27 26 27 27 25 24 22 22 24 23 20 20 20 20 18 17 16 17 17 16 14 13 13 13 12 12 13 13 12
10 14 12 12 14 14 14 12 14 15 11 8 7 11 18 19 16 13 11 10 8 8 9 12 12 11 10 12 16 18 18 17 16 15 16 15 16 17 16 17 17 18 18 17 18 20 21 25 28 29 30 30 28 27 27 27 27 28 27 27 28 25 24 23 23 24 24 22 21 21 21 19 18 18 17 15 14 13 12 13 13 13 12 13 13 13
11 16 15 14 14 11 10 11 13 15 13 9 5 5 11 16 19 17 12 10 9 10 10 12 12 10 10 10 12 15 17 17 17 16 16 16 18 18 17 18 19 19 19 19 19 21 22 25 29 30 30 29 28 27 27 27 27 27 27 27 27 26 25 24 24 25 25 24 22 22 21 20 19 18 16 13 13 13 13 13 13 13 12 12 13 14
9 13 15 14 12 11 11 10 12 14 13 11 6 5 8 12 15 16 13 10 10 11 13 14 15 11 9 10 11 12 14 15 15 15 16 17 18 18 17 18 19 18 18 18 19 20 22 27 29 29 29 29 29 27 27 26 26 27 27 27 28 27 25 24 25 26 26 25 23 22 22 21 19 18 16 14 13 14 14 13 13 14 13 13 13 14
10 9 11 13 12 11 12 11 11 12 12 12 10 8 9 9 10 11 11 10 10 13 14 17 17 13 10 10 11 12 12 13 14 13 14 16 17 17 17 17 17 17 16 17 18 19 23 27 28 27 28 29 29 27 27 27 27 27 27 27 28 27 25 24 26 26 26 26 24 23 23 23 22 19 18 16 14 14 14 14 15 14 15 15 14 13
15 10 8 9 10 12 13 12 12 12 12 12 10 9 8 8 8 8 9 10 11 12 13 17 19 17 13 10 10 12 13 14 15 14 15 16 16 16 16 16 17 17 17 17 18 18 20 22 24 27 28 29 29 28 28 28 28 28 28 28 28 28 26 25 26 27 26 26 25 25 24 24 23 21 20 19 17 16 16 15 15 14 15 15 15 14
14 14 12 10 11 13 13 11 11 12 13 11 10 9 9 8 7 8 9 10 12 11 11 15 17 16 14 11 12 13 12 13 15 15 15 16 16 16 16 16 16 16 17 17 17 17 18 19 21 26 28 29 30 30 30 30 29 28 28 29 29 29 29 27 26 27 27 26 25 25 25 24 23 22 21 21 20 18 17 16 15 15 15 15 15 16
10 13 16 15 11 13 15 12 9 11 12 13 11 10 10 9 8 10 10 9 10 11 13 15 15 13 13 12 15 17 13 11 13 15 15 14 14 15 15 16 16 16 17 16 17 17 18 18 21 26 29 29 30 31 31 30 30 29 28 30 30 29 29 28 27 27 27 27 26 26 25 24 23 23 22 22 21 20 18 17 17 17 16 16 16 17
9 8 13 17 12 14 18 15 12 11 11 13 12 10 11 10 8 8 8 9 9 9 12 16 13 10 9 8 12 17 16 14 12 12 13 12 12 13 14 15 16 16 17 16 17 18 19 20 24 27 28 29 30 32 32 31 30 29 29 30 31 30 30 29 28 28 28 28 28 26 25 24 23 23 22 22 21 20 20 19 19 19 18 17 16 16
11 6 3 7 8 13 18 17 14 12 10 11 12 11 12 10 9 7 7 8 7 7 10 12 9 6 5 4 6 10 14 17 16 15 15 14 13 13 13 14 15 15 16 16 17 19 20 22 25 27 28 30 30 31 32 32 32 31 30 30 31 31 30 30 29 29 28 28 28 27 26 25 24 23 22 21 20 21 21 20 20 20 20 19 16 15
9 5 5 3 6 11 14 15 15 13 9 8 11 12 11 11 11 9 9 9 7 8 8 8 9 8 7 7 9 11 10 13 16 17 18 18 17 16 13 13 14 14 16 17 17 19 20 21 25 28 29 30 31 32 33 33 33 32 30 30 31 30 30 30 30 29 28 28 29 28 27 26 25 24 23 22 22 22 21 21 21 21 20 20 18 16
4 5 1 3 9 9 5 8 14 15 12 8 9 12 11 12 12 9 8 9 9 9 8 9 12 11 9 8 10 17 17 14 15 15 16 17 18 18 16 15 15 15 16 18 19 19 20 21 24 29 30 32 33 34 34 34 33 32 30 31 32 32 31 31 31 29 28 29 28 27 27 27 26 25 25 24 23 22 21 21 21 21 20 20 20 18
4 8 6 7 10 6 4 8 12 15 18 15 10 9 11 11 11 10 8 9 10 10 8 10 13 12 10 7 6 14 21 20 18 17 16 17 16 16 16 17 18 17 16 17 18 18 18 20 24 28 31 33 34 34 34 34 33 32 31 31 32 33 33 32 31 30 29 29 27 26 27 28 27 25 25 24 22 21 22 22 22 22 22 21 20 19
3 7 6 7 9 5 6 10 10 12 17 17 14 11 11 10 10 10 8 8 9 8 7 10 11 9 9 10 8 9 13 17 19 18 17 18 17 15 15 15 16 16 15 16 17 18 19 21 25 31 32 33 35 34 34 34 34 34 33 32 32 33 33 32 32 31 30 30 28 26 27 28 28 27 25 24 23 22 23 23 22 22 22 21 20 19
4 6 6 6 8 6 7 11 13 14 13 14 14 12 11 10 10 11 10 9 9 8 7 7 8 7 6 9 11 9 8 11 13 14 15 16 16 16 15 15 15 15 15 16 17 18 20 21 26 31 33 33 33 33 33 34 34 34 32 32 33 33 33 34 33 32 31 30 29 28 28 28 29 28 26 24 24 23 23 23 23 22 21 21 20 19
3 5 7 7 6 8 11 9 10 12 8 8 13 15 15 12 11 12 12 11 10 9 8 7 6 5 3 4 9 10 10 9 9 10 11 13 15 15 15 15 15 15 15 17 17 18 19 20 23 28 30 30 30 31 32 33 33 34 33 33 33 34 34 34 34 33 32 31 30 30 29 28 28 28 27 25 25 25 24 23 23 22 21 21 21 20
4 5 7 9 8 10 11 7 7 9 9 9 9 12 15 15 13 13 12 10 10 11 10 8 8 4 3 4 4 6 8 10 11 11 11 11 13 14 15 15 15 15 16 17 18 18 18 18 21 26 28 29 30 32 34 34 33 35 35 34 34 34 35 35 34 34 32 31 31 31 30 29 28 27 27 27 26 26 25 24 23 23 22 22 21 20
3 5 7 8 8 11 16 14 10 9 9 9 9 9 11 15 14 12 7 5 7 11 11 8 8 7 3 3 3 3 4 6 7 8 9 10 10 11 14 15 15 15 16 17 17 16 16 17 19 20 22 26 29 31 32 33 33 34 34 34 34 35 36 35 34 33 32 32 31 31 30 29 29 28 28 28 27 27 26 25 23 23 24 23 22 21
3 5 6 7 8 8 11 13 12 9 7 9 12 11 8 10 10 8 5 4 6 10 12 10 9 7 5 5 5 6 8 8 7 6 7 7 7 7 9 10 11 13 14 15 15 16 16 17 17 16 19 24 28 29 31 32 33 33 34 35 35 34 35 35 33 33 33 32 31 31 31 30 30 29 30 29 28 28 27 26 24 24 24 24 23 21
5 5 5 7 10 9 7 6 7 6 6 10 13 12 8 9 11 9 8 9 8 9 11 10 8 6 5 6 7 7 9 10 8 7 7 7 6 6 5 5 7 8 10 11 13 14 15 15 16 16 18 23 28 29 30 31 32 32 33 35 34 33 34 34 33 33 33 32 32 32 32 31 31 30 30 30 29 28 27 26 25 24 24 24 24 23
4 6 8 9 12 10 7 6 6 7 7 9 11 10 9 9 10 10 10 13 12 10 11 11 10 9 7 7 6 7 7 8 8 8 6 5 4 4 3 4 5 6 8 9 10 11 12 13 15 17 19 24 28 30 30 31 32 32 32 33 33 32 33 33 33 33 32 32 32 32 33 32 32 31 30 29 29 27 27 27 26 25 24 23 24 24
5 7 11 14 16 17 16 14 12 11 11 10 9 8 8 8 9 11 14 16 13 10 14 15 11 11 11 6 4 3 2 4 6 5 3 2 2 1 1 2 5 6 7 9 10 12 14 14 16 17 19 23 27 28 29 30 31 32 32 33 33 32 32 33 33 33 33 32 31 32 33 33 31 31 30 29 28 27 26 26 26 25 24 23 23 24
6 8 10 13 17 19 19 18 15 13 12 12 12 12 10 8 9 12 15 17 13 10 12 12 6 8 12 9 4 4 7 9 8 9 9 6 4 2 1 2 5 6 7 10 12 14 15 15 16 17 19 22 25 27 28 28 29 30 30 31 32 32 32 32 33 33 33 32 32 32 32 31 30 29 29 28 28 27 26 26 25 25 24 23 23 23
6 7 9 12 14 17 20 20 18 15 15 15 14 14 14 13 12 12 13 14 14 11 11 10 7 9 11 9 9 11 12 12 11 10 10 8 6 5 4 5 6 6 6 8 11 14 16 16 17 18 19 20 24 27 28 27 28 30 30 31 32 33 33 32 32 33 33 32 32 31 31 30 29 29 29 29 28 28 28 26 25 25 25 24 23 23
5 6 9 10 10 13 17 18 18 17 16 17 17 16 16 15 14 14 12 12 12 12 11 12 12 12 10 7 10 11 12 13 13 13 11 8 7 8 8 8 7 6 6 6 8 11 15 16 17 18 18 20 25 29 29 28 29 30 31 31 33 34 33 33 33 34 34 32 31 30 30 30 29 29 30 30 29 29 28 27 25 25 25 24 24 23
6 6 8 8 8 10 12 15 17 16 16 18 19 18 18 17 14 13 12 12 12 13 13 13 12 10 7 8 10 9 10 12 14 14 12 10 9 10 10 10 10 9 8 7 7 8 11 15 17 19 20 22 27 30 30 29 30 30 31 32 33 34 34 34 34 33 33 31 29 30 30 30 30 29 29 29 29 29 29 28 26 25 25 25 24 23
6 6 6 7 8 9 10 12 13 13 14 15 15 16 18 17 15 13 13 11 9 10 12 11 7 3 4 9 9 9 10 11 12 12 12 12 12 11 11 12 12 12 11 10 9 10 11 13 15 18 21 24 28 31 32 32 32 32 33 33 32 33 33 33 33 32 31 30 29 30 30 30 29 29 29 29 28 28 27 28 27 26 25 25 23 23
8 8 7 7 8 8 10 11 10 11 14 11 8 12 17 18 18 17 12 8 6 5 7 6 4 4 6 8 9 10 10 11 12 13 12 11 10 11 12 13 14 14 14 13 12 12 12 12 13 17 23 27 30 33 34 33 32 31 31 31 31 31 32 32 31 30 30 30 30 30 30 29 29 29 29 28 28 27 27 28 29 27 25 24 23 23
9 9 8 7 8 8 8 8 8 11 12 7 4 8 13 16 19 13 4 3 4 2 4 5 5 5 8 9 9 10 11 13 15 15 15 12 9 10 12 13 14 15 15 15 14 14 12 13 15 17 22 28 31 31 31 31 30 29 29 29 31 31 31 31 30 29 29 30 30 29 30 30 29 29 28 28 27 27 28 28 28 27 26 24 23 24
12 9 7 7 8 8 7 7 8 9 8 6 4 4 6 10 13 11 7 4 2 2 4 5 5 6 9 10 9 9 11 13 14 15 15 13 9 10 12 13 15 16 16 16 16 16 15 16 18 19 22 26 28 29 30 31 30 29 29 30 30 31 31 30 29 28 29 30 30 30 30 31 30 29 28 28 28 28 28 27 27 27 26 24 23 23
13 10 8 8 8 8 8 8 8 9 10 8 5 2 2 2 5 5 3 3 2 1 3 4 4 6 9 9 9 10 11 11 11 11 10 7 8 11 13 15 16 17 17 17 18 20 20 20 21 21 22 24 26 29 30 31 31 30 29 29 29 30 30 30 29 28 29 30 30 30 31 31 30 29 29 28 29 28 28 27 27 26 26 25 23 22
15 13 10 9 8 8 8 8 8 10 10 5 3 4 6 5 2 2 1 3 3 1 2 2 4 6 8 9 11 12 10 9 10 6 4 13 16 16 17 17 18 17 17 18 19 21 21 20 20 20 21 24 27 30 29 29 30 30 28 28 29 30 30 29 29 29 29 30 30 29 30 30 30 29 29 29 29 29 28 27 26 26 26 25 25 23
17 14 11 9 8 8 8 8 7 8 6 2 6 7 7 5 4 3 4 4 2 1 3 3 4 6 9 10 11 10 6 7 7 2 11 19 20 19 18 19 18 17 18 20 20 19 18 16 16 18 21 24 27 29 29 30 31 29 28 28 29 29 29 29 30 30 30 30 29 28 29 29 29 29 28 28 28 27 27 26 26 25 25 25 25 24
15 12 10 10 10 9 10 8 7 8 4 4 8 9 8 6 4 5 7 4 2 3 4 5 5 7 9 9 8 6 3 4 6 9 16 22 21 19 19 19 17 16 18 20 20 19 16 13 14 17 21 24 26 28 30 31 31 28 27 28 28 28 29 29 30 30 29 28 28 27 27 28 28 28 27 27 26 25 25 25 24 24 24 24 24 23
12 10 9 11 11 11 12 9 7 8 3 7 10 10 9 6 5 6 5 1 3 4 5 6 6 7 9 9 6 4 4 7 10 14 19 21 20 20 20 19 17 17 17 17 17 16 13 11 14 17 20 23 26 28 29 30 29 27 27 27 27 28 29 29 28 27 27 27 27 27 27 27 27 28 27 25 24 24 24 24 24 24 24 23 23 23
10 10 8 10 10 10 10 8 8 7 2 11 12 7 5 4 5 3 1 2 2 5 6 6 7 8 9 9 7 6 8 11 13 15 17 19 18 20 20 16 13 14 14 13 12 12 10 10 14 17 19 23 26 28 29 29 28 26 27 27 28 29 28 26 26 26 26 27 27 26 26 27 27 27 26 24 24 24 24 24 23 23 23 23 22 22
5 7 8 9 9 8 8 8 8 6 3 12 12 5 3 3 1 1 3 3 1 5 5 5 6 8 9 10 10 10 11 13 15 15 16 18 18 19 19 12 9 10 10 9 8 7 6 8 13 16 18 22 26 27 28 28 26 26 27 27 27 27 26 25 25 26 26 27 27 26 26 26 26 26 25 24 25 25 24 23 23 22 22 22 21 20
1 4 5 6 6 7 8 7 3 3 5 9 9 4 3 3 2 3 5 3 2 4 5 5 5 7 9 10 11 12 12 13 16 16 17 18 18 19 18 11 7 8 8 7 6 5 4 4 10 15 17 20 23 24 25 27 25 24 25 26 25 25 24 24 25 25 25 26 26 24 24 24 25 25 24 24 24 24 23 22 22 21 21 21 21 20
2 2 2 4 4 5 7 5 4 7 7 7 5 2 1 1 1 4 6 5 4 4 5 6 6 7 9 10 11 12 11 13 16 17 16 17 16 18 18 11 9 10 10 9 8 4 2 1 3 7 12 17 20 20 21 23 22 22 22 23 23 24 23 23 24 24 24 24 24 23 22 23 23 24 23 23 23 23 22 22 21 21 21 21 21 20
4 4 3 4 4 6 7 6 6 8 10 9 6 2 2 2 2 4 6 7 7 7 6 7 7 8 9 9 10 11 11 14 17 16 16 16 15 16 17 12 10 12 12 13 13 8 3 2 2 5 6 8 12 15 16 17 19 19 19 20 22 23 21 21 23 23 22 22 23 22 22 22 22 23 23 23 23 22 22 22 22 21 21 21 21 21
4 5 4 4 4 5 4 2 4 9 13 11 6 4 4 3 3 5 7 7 8 9 9 9 8 9 8 8 9 11 12 15 17 16 15 15 14 15 17 13 10 13 14 15 17 14 9 5 3 5 9 10 7 8 10 13 16 17 18 19 21 21 19 20 21 20 20 21 21 21 22 22 21 22 22 22 22 21 21 21 21 21 21 21 21 20
4 4 4 4 5 5 4 3 7 12 13 8 4 3 2 4 7 8 8 8 9 11 10 9 9 8 8 8 9 11 12 14 16 16 16 15 12 12 15 13 9 14 16 17 19 18 15 12 8 7 9 10 9 7 8 9 11 13 14 17 19 19 18 18 19 19 20 20 19 20 21 21 21 21 20 21 22 20 20 20 21 21 22 21 20 19
6 5 6 6 5 5 4 5 10 12 7 3 2 4 6 8 10 11 11 10 10 11 11 10 9 8 8 8 8 10 12 13 15 16 17 15 12 12 15 13 10 14 16 17 18 18 16 14 13 12 11 10 8 9 10 11 10 9 10 11 14 15 15 16 17 17 18 19 18 17 18 19 20 20 19 19 20 20 19 19 19 19 19 19 21 21
5 5 7 6 4 3 4 7 9 9 6 5 8 12 12 11 11 12 12 11 10 10 11 11 10 9 8 7 7 9 11 13 15 16 16 13 11 14 16 12 10 14 16 17 17 18 18 17 15 14 13 11 10 9 9 9 9 8 7 7 9 12 13 14 14 14 15 16 17 17 17 17 18 19 19 19 19 18 19 19 18 17 17 16 18 23
6 6 7 7 5 5 8 10 9 7 8 9 12 13 13 12 11 12 12 11 10 10 11 11 11 10 8 7 8 8 10 13 15 17 16 12 12 17 18 14 12 13 16 18 19 18 18 18 17 16 14 13 12 11 10 10 9 7 6 5 6 9 11 12 13 13 13 14 14 15 16 17 17 18 18 18 17 17 18 18 15 15 16 14 14 18
Wind_Direction
191 202 203 211 212 206 206 211 220 225 236 251 239 226 229 229 222 220 215 193 198 222 224 221 220 212 220 219 206 215 214 202 196 188 185 188 186 188 189 189 188 190 192 185 187 191 188 189 190 189 189 189 190 189 185 183 183 183 181 179 182 183 182 181 182 185 187 190 191 194 197 199 200 200 202 204 205 205 202 197 194 195 198 203 207 210
195 214 215 213 215 211 209 210 218 225 225 243 247 233 229 231 228 222 218 201 201 226 229 226 231 220 214 219 209 204 210 206 196 193 192 192 192 190 191 190 188 187 185 181 184 189 188 188 189 189 190 190 190 189 188 187 186 184 183 183 184 184 186 187 186 186 189 192 193 194 197 199 197 198 201 204 206 208 204 201 201 199 201 207 211 214
202 223 222 214 214 217 217 211 213 222 225 230 240 241 234 226 231 232 220 203 207 229 234 228 235 234 220 221 219 203 202 205 199 200 197 194 194 192 192 190 186 184 182 182 183 187 189 188 188 188 191 192 191 190 189 190 188 186 186 187 187 188 189 191 190 189 190 192 193 194 197 199 197 198 202 204 205 208 209 206 204 205 207 211 213 215
204 221 224 217 209 211 211 203 204 213 223 227 233 238 238 225 226 233 216 208 220 232 243 240 239 244 233 226 229 216 203 204 204 204 202 198 198 195 193 189 186 184 183 184 184 185 187 188 188 189 190 191 191 191 190 189 188 188 189 189 189 190 190 192 192 191 191 189 190 193 194 197 198 194 194 199 203 207 212 210 207 208 210 212 213 213
218 212 219 218 207 204 204 198 204 213 221 224 228 233 236 227 226 239 231 209 225 229 237 247 248 242 233 225 227 218 207 208 205 206 205 202 202 198 193 191 190 187 184 184 184 185 186 187 189 190 190 189 190 192 191 190 190 189 190 189 189 191 191 193 193 191 188 184 184 185 184 187 191 189 187 197 206 210 213 215 212 210 210 211 210 211
227 213 200 208 198 201 212 211 211 216 224 223 222 228 237 238 229 236 247 234 232 228 219 226 243 242 224 223 226 214 207 210 206 205 205 202 200 198 196 195 193 190 187 186 186 186 186 187 188 189 190 191 192 193 192 191 191 191 191 189 190 192 192 193 193 192 188 184 183 183 183 187 190 195 201 207 212 212 213 216 215 211 210 210 209 211
230 218 191 193 196 204 218 222 213 213 229 232 214 218 230 240 240 236 240 235 236 242 216 210 233 250 225 221 224 216 211 209 205 204 204 200 196 197 198 196 194 192 190 189 189 188 187 188 189 190 192 193 194 194 192 192 192 192 190 189 189 190 191 192 192 192 189 187 188 190 193 197 198 203 210 214 216 214 212 213 212 211 210 209 209 211
219 219 197 193 206 210 216 222 212 209 225 237 215 213 221 228 235 237 242 240 242 261 242 214 227 251 241 225 220 218 216 208 204 205 201 198 198 198 200 197 195 194 191 189 190 190 190 189 190 192 193 194 194 193 192 192 193 192 189 187 188 189 191 193 191 191 191 190 192 195 199 203 206 210 213 213 213 212 210 208 208 208 208 209 210 212
197 219 210 199 210 216 218 220 214 210 221 237 235 227 225 226 230 232 240 244 242 253 247 220 218 240 246 231 218 216 217 210 207 209 203 199 200 199 200 199 197 195 193 191 191 191 191 192 193 193 192 192 193 193 192 191 191 190 188 186 187 190 191 191 190 190 193 194 194 197 200 203 208 212 212 209 206 205 203 203 203 204 207 210 211 214
194 217 220 209 212 222 220 217 216 213 221 233 234 231 229 229 230 229 233 240 242 244 242 227 218 231 244 230 217 214 215 212 210 211 207 204 201 199 200 200 198 195 194 194 193 192 192 193 194 193 191 191 193 193 191 189 189 188 187 187 188 190 191 190 190 190 193 195 195 198 201 202 205 206 206 206 201 197 197 200 203 205 210 213 214 216
229 214 222 221 218 223 223 218 219 219 223 230 229 227 229 227 225 227 229 233 239 240 237 232 227 234 246 231 220 217 214 216 215 208 206 206 202 199 199 201 198 194 194 195 195 194 193 193 192 192 192 192 192 191 189 189 189 187 186 187 188 190 190 190 190 191 194 195 197 200 202 203 203 201 199 200 198 195 195 200 205 210 214 216 218 218
236 221 216 220 212 220 228 223 218 215 219 227 226 222 228 226 215 219 219 219 233 239 232 231 231 235 242 234 226 225 214 216 221 213 205 205 203 199 198 200 199 195 194 194 194 193 191 191 190 191 193 191 190 190 190 190 189 188 187 186 187 189 190 189 190 192 194 196 199 202 203 204 203 200 198 199 199 197 198 202 206 209 214 215 217 218
229 227 219 215 206 210 220 219 214 211 212 220 220 213 218 215 204 209 211 211 227 236 230 230 230 233 243 240 234 236 223 213 219 218 212 207 203 200 198 199 199 197 195 193 193 191 189 189 190 191 191 190 190 192 192 191 189 188 187 186 187 189 189 189 190 192 194 198 201 202 203 204 203 203 202 202 202 202 202 204 204 207 211 213 213 216
219 222 219 220 207 201 211 214 209 205 205 211 210 208 213 208 200 207 212 217 229 230 223 227 232 237 245 242 231 234 233 220 217 218 217 213 205 201 198 199 199 197 196 194 192 191 190 190 189 190 190 189 190 192 191 191 190 188 187 187 188 189 189 189 191 193 196 200 204 202 201 202 202 204 205 206 207 206 204 204 206 209 214 215 215 216
229 221 210 214 203 193 206 217 221 213 206 209 208 212 220 218 214 213 212 218 226 226 213 213 225 236 238 237 226 226 228 224 221 216 214 214 211 206 201 199 199 198 197 194 193 194 192 191 190 189 189 189 190 191 191 191 190 189 188 187 188 188 188 189 191 194 195 199 204 202 200 202 203 204 206 208 209 207 204 205 207 210 215 219 220 219
246 252 171 199 205 194 202 212 221 226 215 201 203 215 221 222 231 237 243 243 243 241 215 203 214 232 232 235 216 217 221 217 217 218 217 217 215 212 206 201 200 199 197 194 194 196 194 191 190 190 190 190 190 190 191 191 190 189 188 187 187 187 187 188 190 193 194 197 202 202 199 200 203 204 205 207 207 206 205 205 206 209 214 219 220 218
246 238 94 107 208 202 210 211 207 221 228 195 197 215 220 224 235 245 253 257 259 252 226 204 215 224 235 240 215 209 216 212 211 215 218 219 216 214 211 206 203 199 196 195 194 195 194 191 191 191 190 190 190 191 192 191 190 190 188 186 186 186 186 188 190 192 194 196 201 201 199 200 202 203 205 207 206 206 204 204 207 210 214 217 218 218
289 265 133 196 213 198 227 232 209 218 236 225 206 205 209 224 233 241 248 240 234 238 228 215 221 219 222 231 210 207 213 213 211 212 214 216 216 216 215 211 208 203 198 197 196 195 193 192 192 191 191 191 191 192 191 190 190 190 189 187 186 185 187 189 190 192 193 195 198 199 198 199 201 204 207 208 207 205 204 204 207 211 214 216 217 217
326 279 252 223 217 192 193 227 220 218 227 243 247 211 200 215 219 218 234 235 228 232 230 221 225 225 222 221 203 204 210 212 213 214 216 215 212 213 215 213 210 206 201 198 198 196 193 193 193 192 192 192 192 191 190 189 189 190 191 190 189 188 188 189 190 192 193 194 196 198 198 199 201 205 207 207 207 204 204 206 207 210 214 215 215 214
309 270 250 203 197 196 200 211 219 213 212 231 253 242 220 219 219 214 221 235 237 240 235 222 219 223 225 228 228 214 208 209 210 213 216 218 214 209 210 213 209 206 203 198 197 196 193 194 194 194 194 193 191 190 189 189 190 191 192 191 192 191 189 190 191 192 193 195 196 197 198 199 201 204 204 204 204 204 205 207 208 210 212 213 213 212
272 260 259 207 186 209 220 212 220 219 207 211 224 231 227 221 221 221 220 226 235 242 241 228 223 222 217 222 227 220 207 206 209 210 211 213 216 210 207 212 209 204 202 199 198 196 193 195 196 195 195 194 191 189 188 190 192 192 193 193 193 192 191 191 192 192 193 195 196 196 196 197 198 200 201 202 204 205 206 207 207 209 210 211 212 211
273 259 258 241 218 220 215 209 231 242 246 233 219 217 221 222 220 221 222 221 226 236 240 238 238 225 165 185 214 215 213 212 212 215 211 207 211 210 207 212 208 201 202 200 198 197 194 195 196 195 194 193 190 188 190 192 192 192 194 194 194 194 193 194 193 193 193 193 195 196 196 196 196 198 200 201 203 205 206 206 206 208 208 210 211 210
317 279 260 253 253 254 251 258 278 283 294 283 251 224 219 220 218 221 225 223 223 227 230 240 247 230 125 125 176 196 209 218 219 222 222 215 212 210 209 211 207 201 203 202 200 198 196 194 195 193 191 190 190 189 190 190 191 193 194 194 194 195 195 195 194 193 192 192 194 195 196 196 196 197 198 200 203 205 205 205 206 206 207 210 210 209
306 255 251 253 255 268 274 272 267 273 281 265 247 232 223 222 223 230 243 255 239 224 216 224 237 232 196 163 179 204 220 226 224 223 228 228 227 222 214 210 207 202 203 204 201 199 196 193 191 191 189 189 191 191 190 190 192 193 194 194 195 196 196 195 193 192 191 191 193 194 194 195 196 197 198 201 203 205 205 206 206 206 207 209 210 209
306 248 244 253 245 236 245 246 234 232 250 247 233 227 228 231 234 242 256 266 253 237 230 226 221 224 222 199 203 231 241 239 234 230 232 232 242 248 231 216 210 204 204 207 204 198 195 190 187 188 187 187 190 191 190 191 193 193 194 195 195 196 195 193 192 191 191 191 193 193 194 195 196 197 198 201 204 205 206 207 206 206 206 208 209 208
284 265 257 253 242 223 212 225 229 226 236 236 228 226 230 234 235 237 237 234 234 240 244 239 228 217 196 183 193 220 238 242 240 239 237 229 232 245 243 232 221 209 209 214 210 201 195 189 186 186 185 186 190 191 190 191 193 193 194 195 196 194 193 192 192 191 190 191 192 193 194 195 197 198 199 201 204 205 206 207 207 206 206 207 208 208
274 267 261 255 254 259 279 300 309 316 293 247 226 225 226 227 233 236 234 231 231 237 237 236 248 250 219 186 188 209 227 237 238 239 236 225 228 227 207 213 222 216 214 216 211 203 196 191 189 187 186 188 190 191 191 191 193 194 194 195 195 193 192 191 191 190 190 191 192 192 194 195 197 198 199 201 203 204 204 206 207 206 205 205 206 207
267 259 254 254 257 267 280 288 292 297 290 274 260 251 235 219 224 229 230 230 230 239 233 223 236 256 243 220 190 183 242 270 265 279 303 327 322 308 140 188 226 228 217 206 199 197 195 194 192 189 188 190 192 193 193 193 194 193 193 193 193 192 192 190 190 190 190 191 192 193 194 195 195 196 197 199 200 202 204 205 206 206 205 205 205 207
263 264 261 261 261 265 273 279 281 278 273 271 271 269 258 240 228 227 232 231 224 231 238 229 235 261 251 252 281 329 342 331 324 333 334 330 331 336 336 271 254 246 226 206 196 195 196 195 192 189 187 190 192 194 194 195 195 194 193 192 192 192 192 190 189 190 190 190 192 193 192 192 193 193 194 195 196 198 201 202 204 204 204 205 206 208
253 262 264 266 268 268 270 272 271 267 266 264 261 259 259 255 244 234 235 234 230 237 247 251 273 274 260 275 312 323 326 322 319 323 321 321 341 350 325 299 281 271 251 221 203 198 198 197 194 191 188 189 192 194 195 195 195 195 194 192 191 191 191 189 189 189 190 191 192 191 189 188 189 190 191 192 193 195 197 199 201 202 203 205 207 209
240 258 271 279 279 271 270 271 266 259 258 260 258 254 253 252 245 238 234 231 231 235 238 244 257 262 263 304 334 325 316 313 308 310 316 327 345 343 326 315 308 304 297 269 232 213 205 202 200 196 191 191 194 195 196 195 195 195 194 192 191 191 189 188 188 189 190 191 190 187 185 185 185 187 188 190 190 191 194 197 199 201 202 204 207 209
233 259 275 279 277 272 270 268 261 256 256 256 253 248 245 244 241 235 228 225 230 228 220 226 237 243 268 326 340 326 313 304 296 301 313 327 339 337 326 319 316 313 311 301 282 253 228 214 206 200 197 197 197 197 197 195 194 194 194 193 192 190 189 188 189 189 189 189 186 183 183 183 183 185 186 187 188 189 192 194 197 199 201 204 206 207
238 254 265 266 269 275 277 269 259 253 252 250 245 239 236 236 238 236 225 218 230 231 220 222 231 246 326 338 335 327 322 310 299 306 318 325 328 327 320 316 314 312 309 303 294 279 259 240 220 207 203 201 198 198 197 194 193 193 193 192 190 189 189 189 188 188 187 186 183 182 182 181 182 184 185 186 187 188 190 193 197 200 201 203 205 206
239 243 249 259 265 270 281 284 271 248 239 239 244 239 231 226 228 233 227 200 195 229 245 257 284 328 340 334 321 316 316 309 303 303 302 304 312 316 315 313 312 311 308 302 293 283 272 261 243 222 210 204 200 200 198 195 194 193 191 189 188 188 189 189 187 186 185 184 182 181 180 181 183 185 185 186 186 188 190 194 197 200 202 203 205 207
234 236 239 249 256 264 276 279 264 244 234 237 265 249 238 231 222 215 190 152 182 239 291 285 289 317 324 316 310 311 305 297 295 292 286 284 291 302 307 308 308 307 304 300 296 291 283 270 256 236 218 209 202 198 196 194 193 191 187 186 186 187 188 187 186 186 184 183 182 180 181 182 184 186 186 186 187 190 193 196 198 200 203 205 207 208
226 226 233 240 246 255 257 246 246 248 241 241 248 235 240 230 201 167 121 117 193 300 302 277 282 308 310 307 311 312 303 295 291 282 272 266 271 292 304 306 305 302 300 298 295 290 283 269 255 240 223 212 204 196 193 192 190 188 187 185 185 185 186 186 186 186 184 184 183 182 183 185 185 186 187 187 190 194 196 198 199 201 202 205 208 210
219 220 226 233 234 240 245 240 247 261 260 244 216 207 289 244 170 156 144 144 135 354 305 285 290 301 308 319 327 319 306 296 281 264 263 289 314 314 310 304 299 296 296 296 293 286 279 265 252 240 223 210 202 196 193 191 188 186 186 185 184 184 185 184 185 186 185 185 186 185 185 186 186 187 188 190 193 196 198 199 199 200 201 203 206 208
210 214 217 226 230 232 242 246 246 254 254 223 128 44 359 353 354 308 241 157 140 49 334 320 318 326 331 336 336 329 307 271 248 237 354 358 343 327 316 306 297 294 296 298 294 287 276 258 242 232 217 204 199 195 190 188 186 183 183 184 184 184 184 185 186 186 185 186 187 186 185 187 187 188 190 192 195 198 198 198 199 199 200 202 205 208
204 210 215 228 235 229 234 240 238 241 236 112 51 17 357 345 335 298 225 190 164 40 19 5 354 354 348 339 341 341 311 252 241 304 360 343 327 320 315 303 294 295 298 296 294 290 276 251 232 223 210 200 196 191 185 184 182 180 180 183 183 183 184 186 186 186 186 186 186 185 184 186 187 189 191 194 196 198 197 197 198 199 199 202 205 208
200 205 212 223 230 232 235 237 240 244 243 34 8 346 342 334 309 240 218 196 84 36 20 21 18 8 352 341 348 1 354 300 296 318 328 321 316 315 307 293 290 296 297 296 299 298 282 247 221 213 203 195 192 186 180 179 178 176 178 181 182 184 186 187 187 187 186 185 183 182 183 184 187 189 192 195 195 196 197 197 198 199 199 202 206 208
197 200 208 217 222 232 235 235 251 255 281 5 349 342 347 319 243 206 213 204 46 30 29 32 25 11 356 346 350 0 343 321 309 309 314 315 315 313 303 290 290 294 294 299 305 302 282 237 211 208 201 191 186 180 175 175 176 175 176 179 182 188 189 187 185 184 183 182 181 181 182 184 187 189 192 194 194 195 198 199 199 200 201 203 206 208
195 196 205 216 221 230 233 236 254 252 348 5 340 336 2 307 232 182 275 288 347 16 26 29 22 11 354 344 345 333 317 317 316 314 316 317 317 311 301 294 295 296 297 302 302 294 275 235 213 210 199 184 179 177 175 176 176 173 174 180 186 189 187 183 182 181 180 180 180 181 182 184 186 188 190 192 193 194 198 200 202 203 203 205 208 208
197 198 202 212 220 231 232 231 242 241 12 3 338 327 21 352 272 24 299 260 357 10 0 10 21 9 348 341 340 328 321 325 325 322 320 321 320 313 306 308 316 308 305 307 306 305 291 243 214 206 195 182 179 180 177 176 175 172 175 183 186 184 181 179 179 179 178 179 179 180 182 184 185 187 191 193 193 195 198 200 202 204 204 206 209 208
238 220 216 220 218 224 224 219 238 286 340 354 342 339 24 31 41 358 327 319 16 2 343 348 4 359 346 341 335 327 327 330 328 329 329 327 324 316 312 325 352 336 325 327 326 338 337 263 216 201 190 180 179 180 177 174 172 172 177 181 179 177 177 177 176 176 176 177 179 179 181 183 185 188 192 194 194 196 198 199 200 203 204 205 208 209
335 321 274 250 250 263 258 262 327 331 325 333 333 325 1 11 346 336 332 328 327 336 342 336 335 342 342 337 332 330 329 324 324 330 329 322 321 314 309 327 18 17 6 5 360 10 44 319 222 183 178 178 178 177 175 174 172 172 174 174 171 173 174 172 172 174 175 176 178 179 179 183 187 191 193 194 194 196 198 199 199 201 201 204 207 209
300 319 301 268 293 305 285 271 296 311 316 319 306 256 227 247 284 321 323 317 315 319 325 323 321 326 330 333 336 334 322 314 319 328 327 321 322 318 312 330 24 32 27 25 16 18 76 119 91 93 109 143 166 173 177 178 176 171 168 167 168 170 170 170 171 173 175 176 177 179 181 184 189 192 195 196 197 198 199 200 200 200 200 202 206 208
289 303 293 280 305 312 290 263 302 309 314 310 280 218 215 259 307 326 316 307 305 307 310 315 315 314 320 334 339 331 320 314 318 327 330 323 322 322 317 328 19 36 34 34 28 25 37 55 83 93 74 69 97 149 169 176 176 170 164 165 169 170 169 171 173 174 176 179 180 182 186 188 191 193 195 196 198 200 201 202 201 200 199 201 204 205
303 309 302 285 288 289 286 318 323 312 304 287 238 198 243 301 320 322 311 303 301 301 303 307 309 311 320 335 337 328 321 318 321 330 332 324 322 325 319 325 12 37 35 35 35 35 36 35 43 70 73 63 69 86 99 121 147 156 158 165 172 174 174 175 177 179 181 182 183 186 189 190 191 193 194 195 198 201 202 202 203 204 204 204 204 204
310 324 327 309 296 287 290 328 333 321 301 251 278 318 312 313 316 312 307 305 301 298 299 302 305 310 316 329 337 331 323 322 327 332 329 325 327 326 315 320 4 31 29 29 35 42 46 44 45 53 61 62 64 66 69 77 92 109 129 153 168 174 176 177 180 182 182 183 185 187 188 189 191 193 195 195 196 200 202 203 204 206 207 207 207 208
334 351 346 330 317 326 343 343 335 325 303 293 313 316 312 312 311 305 303 303 299 299 300 300 302 306 312 330 346 341 330 327 328 329 326 325 330 325 315 324 7 26 27 28 32 39 46 49 49 51 55 58 62 69 75 76 74 82 101 131 160 171 173 173 175 179 182 184 187 189 189 191 193 196 198 199 196 195 196 198 201 202 202 204 206 209
352 0 358 349 333 333 342 340 329 313 298 299 308 312 312 311 307 300 300 299 295 298 299 297 300 306 314 333 348 347 338 329 326 328 326 323 328 327 324 336 10 24 26 30 32 33 37 41 43 47 49 52 59 67 77 79 77 83 102 127 159 175 178 177 178 183 188 190 192 193 194 196 197 197 199 204 203 193 185 187 193 197 200 204 204 205